Location: Bidwell Hollow
(37.7387°N, 90.1707°W)
Time: 01:42:16
(UTC+00:00)

Tiros 1 despin weight - Pass Details

Date: 17 May 2026
Orbit: 554 x 591 km, 48.2° (Epoch: 6 June)

Event Time Altitude Azimuth Distance (km) Brightness Sun altitude
Rises 15:28:54 0° 306° (NW) 2,735 ? 53.0°
Reaches altitude 10° 15:31:12 10° 311° (NW) 1,835 ? 53.4°
Maximum altitude 15:35:19 53° 29° (NNE) 682 ? 54.2°
Drops below altitude 10° 15:39:23 10° 107° (ESE) 1,827 ? 55.0°
Sets 15:41:41 0° 112° (ESE) 2,721 ? 55.4°
